CAPE
0 0 0 0 0 0 0 0 0 0 0 0 0 0 0 0 0 0 0 0 0 0 0 0 0 0 0 0 0 0 0 0 0 0 0 0 0 0 0 0 0 0 0 0
0 0 0 0 0 0 0 0 0 0 0 0 0 0 0 0 0 0 0 0 0 0 0 0 0 0 0 0 0 0 0 0 0 0 0 0 0 0 0 0 0 0 0 0
0 0 0 0 0 0 0 0 0 0 0 0 0 0 0 0 0 0 0 0 0 0 0 0 0 0 0 0 0 0 0 0 0 0 0 0 0 0 0 0 0 0 0 0
0 0 0 0 0 0 0 0 0 0 0 0 0 0 0 0 0 0 0 0 0 0 0 0 0 0 0 0 0 0 0 0 0 0 0 0 0 0 0 0 0 0 0 0
0 0 0 0 0 0 0 0 0 0 0 0 0 0 0 0 0 0 0 0 0 0 0 0 0 0 0 0 0 0 0 0 0 0 0 0 0 0 0 0 0 0 0 0
0 0 0 0 0 0 0 0 0 0 0 0 0 0 0 0 0 0 0 0 0 0 0 0 0 0 0 0 0 0 0 0 0 0 0 0 0 0 0 0 0 0 0 0
0 0 0 0 0 0 0 0 0 0 0 0 0 0 0 0 0 0 0 0 0 0 0 0 0 0 0 0 0 0 0 0 0 0 0 0 0 0 0 0 0 0 0 0
0 0 0 0 0 0 0 0 0 0 0 0 0 0 0 0 0 0 0 0 0 0 0 0 0 0 0 0 0 0 0 0 0 0 0 0 0 0 0 0 0 0 0 0
0 0 0 0 0 0 0 0 0 0 0 0 0 0 0 0 0 0 0 0 0 0 0 0 0 0 0 0 0 0 0 0 0 0 0 0 0 0 0 0 0 0 0 0
0 0 0 0 0 0 0 0 0 0 0 0 0 0 0 0 0 0 0 0 0 0 0 0 0 0 0 0 0 0 0 0 0 0 0 0 0 0 0 0 0 0 0 0
0 0 0 0 0 0 0 0 0 0 0 0 0 0 0 0 0 0 0 0 0 0 0 0 0 0 0 0 0 0 0 0 0 0 0 0 0 0 0 0 0 0 0 0
0 0 0 0 0 0 0 0 0 0 0 0 0 0 0 0 0 0 0 0 0 0 0 0 0 0 0 0 0 0 0 0 0 0 0 0 0 0 0 0 0 0 0 0
0 0 0 0 0 0 0 0 0 0 0 0 0 0 0 0 0 0 0 0 0 0 0 0 0 0 0 0 0 0 0 0 0 0 0 0 0 0 0 0 0 0 0 0
0 0 0 0 0 0 0 0 0 0 0 0 0 0 0 0 0 0 0 0 0 0 0 0 0 0 0 0 0 0 0 0 0 0 0 0 0 0 0 0 0 0 0 0
0 0 0 0 0 0 0 0 0 0 0 0 0 0 0 0 0 0 0 0 0 0 0 0 0 0 0 0 0 0 0 0 0 0 0 0 0 0 0 0 0 0 0 0
0 0 0 0 0 0 0 0 0 0 0 0 0 0 0 0 0 0 0 0 0 0 0 0 0 0 0 0 0 0 0 0 0 0 0 0 0 0 0 0 0 0 0 0
0 0 0 0 0 0 0 0 0 0 0 0 0 0 0 0 0 0 0 0 0 0 0 0 0 0 0 0 0 0 0 0 0 0 0 0 0 0 0 0 0 0 0 0
0 0 0 0 0 0 0 0 0 0 0 0 0 0 0 0 0 0 0 0 0 0 0 0 0 0 0 0 0 0 0 0 0 0 0 0 0 0 0 0 0 0 0 0
0 0 0 0 0 0 0 0 0 0 0 0 0 0 0 0 0 0 0 0 0 0 0 0 0 0 0 0 0 0 0 0 0 0 0 0 0 0 0 0 0 0 0 0
0 0 0 0 0 0 0 0 0 0 0 0 0 0 0 0 0 0 0 0 0 0 0 0 0 0 0 0 0 0 0 0 0 0 0 0 0 0 0 0 0 0 0 0
0 1 3 0 2 10 0 0 0 0 0 0 0 0 0 0 0 0 0 0 0 0 0 0 0 0 0 0 0 0 0 0 0 0 0 0 0 0 0 0 0 0 0 0
0 0 0 0 0 1 0 0 0 0 0 0 0 0 0 0 0 0 0 0 0 0 0 0 0 0 0 0 0 0 0 0 0 0 0 0 0 0 0 0 0 0 0 0
5 9 8 0 3 14 9 0 0 0 0 0 0 0 0 0 0 0 0 0 0 0 0 0 0 0 0 0 0 0 0 0 0 0 0 0 0 0 0 0 0 0 0 0
5 0 0 0 0 0 0 0 0 0 0 0 0 0 0 0 0 0 0 0 0 0 0 0 0 0 0 0 0 0 0 0 0 0 0 0 0 0 0 0 0 0 0 0
0 0 0 0 5 0 0 0 0 0 0 0 0 0 0 0 0 0 0 0 0 0 0 0 0 0 0 0 0 0 0 0 0 0 0 0 0 0 0 0 0 0 0 0
0 0 0 0 0 0 0 0 0 0 0 0 0 0 0 0 0 0 0 0 0 0 0 0 0 0 0 0 0 0 0 0 0 0 0 0 0 0 0 0 0 0 0 0
CIN
-0 -0 -0 -0 -0 -0 -0 -0 -0 -0 -0 -0 -0 -0 -0 -0 -0 -0 -0 -0 -0 -0 -0 -0 -0 -0 -0 -0 -0 -0 -0 -0 -0 -0 -0 -0 -0 -0 -0 -0 -0 -0 -0 -0
-0 -0 -0 -0 -0 -0 -0 -0 -0 -0 -0 -0 -0 -0 -0 -0 -0 -0 -0 -0 -0 -0 -0 -0 -0 -0 -0 -0 -0 -0 -0 -0 -0 -0 -0 -0 -0 -0 -0 -0 -0 -0 -0 -0
-0 -0 -0 -0 -0 -0 -0 -0 -0 -0 -0 -0 -0 -0 -0 -0 -0 -0 -0 -0 -0 -0 -0 -0 -0 -0 -0 -0 -0 -0 -0 -0 -0 -0 -0 -0 -0 -0 -0 -0 -0 -0 -0 -0
-0 -0 -0 -0 -0 -0 -0 -0 -0 -0 -0 -0 -0 -0 -0 -0 -0 -0 -0 -0 -0 -0 -0 -0 -0 -0 -0 -0 -0 -0 -0 -0 -0 -0 -0 -0 -0 -0 -0 -0 -0 -0 -0 -0
-0 -0 -0 -0 -0 -0 -0 -0 -0 -0 -0 -0 -0 -0 -0 -0 -0 -0 -0 -0 -0 -0 -0 -0 -0 -0 -0 -0 -0 -0 -0 -0 -0 -0 -0 -0 -0 -0 -0 -0 -0 -0 -0 -0
-0 -0 -0 -0 -0 -0 -0 -0 -0 -0 -0 -0 -0 -0 -0 -0 -0 -0 -0 -0 -0 -0 -0 -0 -0 -0 -0 -0 -0 -0 -0 -0 -0 -0 -0 -0 -0 -0 -0 -0 -0 -0 -0 -0
-0 -0 -0 -0 -0 -0 -0 -0 -0 -0 -0 -0 -0 -0 -0 -0 -0 -0 -0 -0 -0 -0 -0 -0 -0 -0 -0 -0 -0 -0 -0 -0 -0 -0 -0 -0 -0 -0 -0 -0 -0 -0 -0 -0
-0 -0 -0 -0 -0 -0 -0 -0 -0 -0 -0 -0 -0 -0 -0 -0 -0 -0 -0 -0 -0 -0 -0 -0 -0 -0 -0 -0 -0 -0 -0 -0 -0 -0 -0 -0 -0 -0 -0 -0 -0 -0 -0 -0
-0 -0 -0 -0 -0 -0 -0 -0 -0 -0 -0 -0 -0 -0 -0 -0 -0 -0 -0 -0 -0 -0 -0 -0 -0 -0 -0 -0 -0 -0 -0 -0 -0 -0 -0 -0 -0 -0 -0 -0 -0 -0 -0 -0
-0 -0 -0 -0 -0 -0 -0 -0 -0 -0 -0 -0 -0 -0 -0 -0 -0 -0 -0 -0 -0 -0 -0 -0 -0 -0 -0 -0 -0 -0 -0 -0 -0 -0 -0 -0 -0 -0 -0 -0 -0 -0 -0 -0
-0 -0 -0 -0 -0 -0 -0 -0 -0 -0 -0 -0 -0 -0 -0 -0 -0 -0 -0 -0 -0 -0 -0 -0 -0 -0 -0 -0 -0 -0 -0 -0 -0 -0 -0 -0 -0 -0 -0 -0 -0 -0 -0 -0
-0 -0 -0 -0 -0 -0 -0 -0 -0 -0 -0 -0 -0 -0 -0 -0 -0 -0 -0 -0 -0 -0 -0 -0 -0 -0 -0 -0 -0 -0 -0 -0 -0 -0 -0 -0 -0 -0 -0 -0 -0 -0 -0 -0
-0 -0 -0 -0 -0 -0 -0 -0 -0 -0 -0 -0 -0 -0 -0 -0 -0 -0 -0 -0 -0 -0 -0 -0 -0 -0 -0 -0 -0 -0 -0 -0 -0 -0 -0 -0 -0 -0 -0 -0 -0 -0 -0 -0
-0 -0 -0 -0 -0 -0 -0 -0 -0 -0 -0 -0 -0 -0 -0 -0 -0 -0 -0 -0 -0 -0 -0 -0 -0 -0 -0 -0 -0 -0 -0 -0 -0 -0 -0 -0 -0 -0 -0 -0 -0 -0 -0 -0
-0 -0 -0 -0 -0 -0 -0 -0 -0 -0 -0 -0 -0 -0 -0 -0 -0 -0 -0 -0 -0 -0 -0 -0 -0 -0 -0 -0 -0 -0 -0 -0 -0 -0 -0 -0 -0 -0 -0 -0 -0 -0 -0 -0
-0 -0 -0 -0 -0 -0 -0 -0 -0 -0 -0 -0 -0 -0 -0 -0 -0 -0 -0 -0 -0 -0 -0 -0 -0 -0 -0 -0 -0 -0 -0 -0 -0 -0 -0 -0 -0 -0 -0 -0 -0 -0 -0 -0
-0 -0 -0 -0 -0 -0 -0 -0 -0 -0 -0 -0 -0 -0 -0 -0 -0 -0 -0 -0 -0 -0 -0 -0 -0 -0 -0 -0 -0 -0 -0 -0 -0 -0 -0 -0 -0 -0 -0 -0 -0 -0 -0 -0
-0 -0 -0 -0 -0 -0 -0 -0 -0 -0 -0 -0 -0 -0 -0 -0 -0 -0 -0 -0 -0 -0 -0 -0 -0 -0 -0 -0 -0 -0 -0 -0 -0 -0 -0 -0 -0 -0 -0 -0 -0 -0 -0 -0
-0 -0 -0 -0 -0 -0 -0 -0 -0 -0 -0 -0 -0 -0 -0 -0 -0 -0 -0 -0 -0 -0 -0 -0 -0 -0 -0 -0 -0 -0 -0 -0 -0 -0 -0 -0 -0 -0 -0 -0 -0 -0 -0 -0
-0 -0 -0 -0 -0 -0 -0 -0 -0 -0 -0 -0 -0 -0 -0 -0 -0 -0 -0 -0 -0 -0 -0 -0 -0 -0 -0 -0 -0 -0 -0 -0 -0 -0 -0 -0 -0 -0 -0 -0 -0 -0 -0 -0
-0 -18 -12 -0 -17 -49 -0 -0 -0 -0 -0 -0 -0 -0 -0 -0 -0 -0 -0 -0 -0 -0 -0 -0 -0 -0 -0 -0 -0 -0 -0 -0 -0 -0 -0 -0 -0 -0 -0 -0 -0 -0 -0 -0
-0 -0 -0 -0 -0 -9 -0 -0 -0 -0 -0 -0 -0 -0 -0 -0 -0 -0 -0 -0 -0 -0 -0 -0 -0 -0 -0 -0 -0 -0 -0 -0 -0 -0 -0 -0 -0 -0 -0 -0 -0 -0 -0 -0
-23 -38 -30 -0 -8 -32 -54 -0 -0 -0 -0 -0 -0 -0 -0 -0 -0 -0 -0 -0 -0 -0 -0 -0 -0 -0 -0 -0 -0 -0 -0 -0 -0 -0 -0 -0 -0 -0 -0 -0 -0 -0 -0 -0
-26 -0 -0 -0 -0 -0 -0 -0 -0 -0 -0 -0 -0 -0 -0 -0 -0 -0 -0 -0 -0 -0 -0 -0 -0 -0 -0 -0 -0 -0 -0 -0 -0 -0 -0 -0 -0 -0 -0 -0 -0 -0 -0 -0
-0 -0 -0 -0 -9 -0 -0 -0 -0 -0 -0 -0 -0 -0 -0 -0 -0 -0 -0 -0 -0 -0 -0 -0 -0 -0 -0 -0 -0 -0 -0 -0 -0 -0 -0 -0 -0 -0 -0 -0 -0 -0 -0 -0
-0 -0 -0 -2 -0 -0 -0 -0 -0 -0 -0 -0 -0 -0 -0 -0 -0 -0 -0 -0 -0 -0 -0 -0 -0 -0 -0 -0 -0 -0 -0 -0 -0 -0 -0 -0 -0 -0 -0 -0 -0 -0 -0 -0
Wind_Speed
6 2 6 12 13 10 12 11 7 3 9 11 13 9 14 15 14 15 17 15 16 17 17 15 10 14 13 10 10 8 7 6 6 4 3 3 3 2 3 3 5 4 3 4
4 7 13 13 9 10 13 10 5 2 9 6 9 10 10 19 23 22 22 17 18 15 18 15 15 15 12 10 9 9 8 8 5 4 3 2 3 3 2 3 3 3 3 2
9 12 11 10 8 7 4 2 3 5 5 4 4 6 8 8 18 18 18 19 20 25 22 17 16 12 13 10 9 10 9 8 6 7 5 4 4 3 4 4 4 4 3 4
9 13 8 3 2 4 4 3 1 7 2 5 7 9 7 8 11 23 18 19 20 21 19 18 17 13 12 9 11 12 10 8 7 7 5 6 3 2 2 2 4 5 7 6
11 7 7 3 2 3 1 6 4 3 5 7 7 5 9 7 3 17 17 14 20 22 23 20 17 15 15 13 12 11 10 8 7 6 5 4 4 2 3 4 6 7 6 6
8 3 0 2 3 2 1 1 5 3 1 3 15 5 13 8 8 14 11 10 20 20 19 18 15 18 14 12 12 10 9 7 6 5 5 5 7 5 5 5 5 4 3 4
8 8 5 5 3 1 1 5 4 4 1 8 8 3 4 8 8 6 10 14 17 22 20 19 19 15 15 13 11 10 9 7 6 5 5 6 7 7 6 5 4 5 4 3
5 9 8 4 7 8 5 8 6 4 2 7 7 3 3 5 12 16 17 20 20 19 17 17 18 16 15 12 10 10 10 7 6 6 5 6 7 4 4 4 4 4 3 3
4 1 10 8 3 5 4 3 8 3 3 3 4 2 3 7 9 13 15 18 17 18 16 18 17 15 15 12 9 11 9 7 7 6 6 6 6 6 5 5 4 3 4 4
6 4 4 2 6 6 3 2 6 4 1 5 6 6 6 6 8 10 12 16 16 18 18 15 15 15 13 12 11 9 8 7 7 7 6 5 5 6 5 5 6 6 5 5
7 4 6 3 2 5 3 2 2 3 3 4 3 7 7 12 13 14 12 16 18 18 15 16 15 14 13 11 9 7 7 8 6 6 5 5 5 6 5 5 5 4 5 6
2 0 3 5 8 3 3 1 4 5 7 4 4 9 2 8 13 16 16 17 17 17 17 16 15 14 12 10 7 7 7 7 5 6 6 5 6 6 5 5 5 6 6 5
5 4 4 10 8 9 6 10 6 4 3 4 2 8 2 12 15 15 19 18 17 19 18 15 12 11 11 9 7 8 7 6 5 7 6 6 6 4 5 5 6 5 6 5
3 2 3 4 6 4 7 10 9 3 1 4 4 6 3 14 17 17 18 18 17 16 15 12 10 10 10 8 9 9 7 6 6 6 6 5 4 4 4 5 6 6 6 5
4 1 5 7 7 7 9 7 6 4 7 5 8 7 8 13 17 17 18 19 18 16 14 12 12 11 9 9 9 8 6 5 6 5 6 4 4 5 6 6 6 6 5 5
5 3 5 6 7 9 6 12 11 8 11 6 9 8 7 13 15 16 18 19 19 17 15 13 14 13 11 11 9 9 6 5 6 6 6 5 5 5 6 6 6 7 6 6
4 3 4 2 6 9 6 6 7 4 9 2 6 6 7 9 10 9 9 11 11 13 14 14 13 11 9 11 11 8 6 5 6 7 5 5 5 6 6 6 6 7 6 6
2 4 1 3 7 4 7 6 8 16 13 11 13 11 12 12 9 9 8 10 11 13 13 12 10 12 10 11 10 8 6 7 7 6 5 5 5 5 6 6 7 7 5 6
6 3 2 4 2 5 9 10 7 5 11 7 11 9 10 12 12 8 8 12 13 11 10 11 12 12 10 8 8 8 7 9 7 5 5 4 5 6 6 7 7 6 6 6
5 5 5 4 5 2 2 7 10 3 3 7 7 8 9 3 4 1 8 13 14 14 13 13 13 11 11 6 7 10 8 8 5 6 5 6 6 6 7 8 8 6 5 8
2 0 3 3 3 1 6 7 6 7 5 4 6 5 4 2 3 9 11 13 15 12 15 14 12 10 9 8 11 10 7 6 6 5 5 6 6 7 9 9 7 9 9 8
2 4 1 4 6 4 7 5 5 4 4 6 5 3 8 9 11 10 12 13 13 14 12 12 11 9 7 11 11 8 6 5 6 5 5 7 7 8 9 8 6 9 7 7
4 4 3 5 4 5 4 4 3 4 3 4 7 6 10 9 9 10 12 13 10 11 10 10 9 7 8 9 9 9 4 5 5 4 5 6 7 7 7 5 6 6 6 6
4 5 3 6 5 8 8 7 6 5 4 6 9 9 9 13 14 13 12 9 8 9 10 9 9 10 9 8 9 6 3 3 3 3 1 4 6 6 5 2 3 4 4 4
1 3 2 1 4 9 9 6 5 6 6 9 6 6 10 14 12 12 9 9 8 9 9 7 10 8 7 7 6 3 3 2 1 5 5 5 5 6 4 2 2 3 1 1
1 4 2 5 3 8 2 5 7 10 8 8 11 9 8 9 12 13 10 7 9 10 10 10 9 9 5 5 4 4 4 4 5 6 5 4 5 4 2 1 2 3 4 3
Wind_Direction
249 149 210 224 216 222 246 259 265 249 186 152 193 202 198 187 182 173 178 173 162 151 152 150 128 123 117 113 108 114 96 49 40 13 42 17 345 2 52 86 100 108 73 32
300 227 235 228 235 231 242 256 313 18 140 123 222 233 221 189 201 188 177 173 162 138 151 149 132 127 126 123 120 108 98 77 44 13 9 28 333 38 74 77 40 70 75 41
203 242 238 237 260 295 267 99 353 275 185 228 228 286 254 223 204 192 185 175 163 157 156 151 138 127 123 122 119 108 104 89 62 37 22 0 4 22 21 13 2 350 20 47
228 253 271 203 310 321 300 276 1 333 141 214 160 282 254 241 262 185 181 176 166 160 152 144 138 133 133 125 112 104 100 92 79 58 41 39 39 8 341 357 14 354 17 51
258 299 245 186 230 343 307 49 20 346 331 8 320 294 277 269 184 179 180 173 164 156 149 144 142 136 128 116 111 108 100 88 79 72 58 47 14 327 4 19 25 6 6 50
246 217 350 115 96 89 106 29 353 321 195 309 262 177 279 275 183 174 171 134 141 137 138 134 133 123 117 114 106 104 99 96 85 74 63 52 25 17 34 17 15 353 357 23
283 249 230 166 119 178 73 63 348 327 345 235 276 324 263 25 24 132 139 114 128 132 135 134 124 121 121 115 112 109 106 100 92 63 67 57 44 38 36 18 7 8 4 8
231 306 212 185 174 187 205 154 163 238 293 281 359 272 22 32 50 66 92 111 121 124 128 124 123 123 121 114 109 111 107 101 88 71 62 58 51 41 17 17 19 14 11 358
300 269 35 71 67 142 308 172 219 229 295 353 246 4 34 79 79 96 108 109 116 122 123 118 119 116 115 110 102 108 105 102 87 73 67 51 43 39 19 18 26 12 356 355
335 34 27 29 44 351 166 246 13 350 330 271 322 316 187 172 160 125 104 108 111 110 113 111 112 112 107 101 97 95 102 97 89 79 62 55 35 43 32 29 18 7 352 352
22 78 296 78 162 219 358 294 236 157 160 221 276 276 204 189 162 137 126 119 119 120 119 113 108 109 108 104 102 109 98 94 85 90 82 60 27 33 30 28 13 7 354 349
359 13 328 252 269 301 326 289 113 124 277 235 183 270 331 152 127 121 120 117 115 113 111 110 116 118 117 118 112 103 100 92 107 102 82 61 43 31 23 16 8 2 352 350
331 358 9 344 356 12 15 359 20 352 46 284 104 275 128 89 103 112 115 111 109 110 111 115 117 120 120 122 125 111 103 108 99 96 86 57 43 30 19 8 359 354 353 340
51 351 122 198 268 294 342 339 338 84 105 272 258 293 112 107 107 105 106 109 110 113 118 123 127 120 125 128 115 103 91 88 86 90 79 63 29 31 14 12 359 353 343 342
93 11 22 338 323 319 309 312 327 355 322 12 33 57 23 114 117 118 117 116 120 130 137 139 129 125 125 108 111 105 106 103 94 84 75 48 41 37 18 9 357 352 343 327
355 322 9 342 333 359 11 37 46 30 21 353 103 72 71 96 107 120 136 145 148 148 140 128 129 136 134 126 120 110 101 106 103 91 79 49 44 36 13 7 355 353 336 339
338 30 17 297 7 12 15 29 34 56 15 300 50 119 93 79 98 115 117 123 131 136 137 134 140 140 125 122 120 113 109 96 85 82 71 40 42 42 360 1 1 343 336 12
199 343 277 233 54 28 242 23 62 75 29 47 73 85 89 88 71 78 102 114 114 125 127 140 125 109 101 102 106 113 107 92 78 65 68 46 42 32 3 360 358 339 355 20
183 161 323 114 119 259 28 359 23 59 25 38 94 89 93 89 74 35 97 117 129 126 120 111 112 111 112 110 111 109 98 89 80 62 52 45 43 29 6 18 5 337 24 15
186 158 120 46 112 203 20 325 318 319 19 8 122 139 153 188 73 319 69 96 95 104 113 113 108 106 104 111 104 95 89 86 82 74 53 26 26 43 36 30 14 356 21 20
185 180 171 141 190 46 341 355 3 62 259 76 71 74 76 107 196 154 112 102 110 121 114 111 109 110 109 103 100 97 95 106 95 79 72 49 30 60 50 39 18 19 21 15
89 113 262 41 54 341 359 35 69 205 54 103 82 90 103 117 117 115 112 107 114 114 111 105 106 109 108 108 105 102 95 93 84 81 63 77 56 52 58 41 14 29 13 13
41 127 150 125 188 158 77 125 168 117 115 107 114 122 119 109 96 98 110 109 117 113 104 108 109 107 96 107 107 98 109 102 105 92 58 92 81 70 71 57 34 40 8 21
52 37 87 62 334 91 68 56 54 72 65 105 122 138 139 136 135 132 117 127 127 113 118 115 98 93 84 85 93 110 129 114 125 124 143 120 101 88 72 71 62 61 24 20
139 312 188 242 108 100 58 49 68 69 71 98 110 131 132 127 126 116 139 142 122 116 116 105 108 106 104 104 100 144 209 202 221 89 65 66 112 107 93 50 30 94 70 40
184 224 179 218 169 109 81 13 93 96 98 111 109 102 108 120 130 141 122 121 126 114 110 104 106 109 113 107 110 220 249 247 112 84 64 70 65 87 165 205 300 76 137 1